Powrót do katalogu

STARLINK-32228

AktywnyŁącznośćVLEO
NORAD 60445·PAYLOAD·🇺🇸 United States

Wystrzelony Aug 12, 2024 z Cape Canaveral Space Force Station

Loading…

Następne Przeloty (najbliższe 24 godziny)

TLE

ŚwieżeSource: CelesTrak SupGP

Epoka: Sep 14, 2026, 13:50 UTC

1 60445C 24144W   26257.57687500 -.00039622  00000+0 -11703-2 0  2578
2 60445  53.1589  55.1899 0000938  88.7624 254.0419 15.34419135    16

Śledź STARLINK-32228 w czasie rzeczywistym z AllMySat

Download on the App Store